Total_Precipitation_Accumulation
0.54 0.51 0.44 0.42 0.39 0.35 0.34 0.31 0.27 0.23 0.20 0.17 0.13 0.10 0.09 0.08 0.07 0.08 0.07 0.05 0.04 0.06 0.11 0.17 0.26 0.33 0.39 0.45 0.49 0.49 0.43 0.37 0.35 0.34 0.32 0.31 0.33 0.33 0.33 0.35 0.36 0.37 0.38
0.56 0.51 0.44 0.41 0.38 0.34 0.31 0.32 0.30 0.27 0.24 0.20 0.15 0.11 0.08 0.07 0.06 0.07 0.07 0.06 0.05 0.05 0.07 0.12 0.23 0.34 0.46 0.55 0.60 0.61 0.57 0.53 0.47 0.43 0.41 0.38 0.36 0.35 0.36 0.38 0.39 0.40 0.42
0.68 0.60 0.52 0.43 0.38 0.39 0.36 0.34 0.36 0.30 0.23 0.19 0.16 0.14 0.11 0.09 0.08 0.08 0.08 0.07 0.07 0.07 0.07 0.11 0.20 0.31 0.44 0.54 0.62 0.68 0.70 0.65 0.59 0.55 0.51 0.47 0.43 0.40 0.40 0.42 0.44 0.46 0.47
0.85 0.77 0.71 0.61 0.54 0.51 0.51 0.43 0.37 0.36 0.27 0.22 0.18 0.15 0.13 0.11 0.09 0.08 0.08 0.07 0.07 0.07 0.08 0.10 0.14 0.23 0.33 0.43 0.55 0.67 0.73 0.70 0.64 0.60 0.56 0.55 0.53 0.53 0.54 0.54 0.54 0.54 0.54
0.96 0.88 0.79 0.79 0.78 0.68 0.58 0.53 0.42 0.40 0.36 0.28 0.25 0.21 0.17 0.14 0.12 0.10 0.09 0.09 0.08 0.08 0.08 0.10 0.11 0.14 0.19 0.30 0.42 0.61 0.74 0.79 0.74 0.70 0.69 0.68 0.66 0.65 0.67 0.69 0.70 0.68 0.70
1.05 1.01 0.92 0.89 0.90 0.87 0.77 0.66 0.56 0.49 0.44 0.42 0.36 0.27 0.22 0.17 0.14 0.12 0.11 0.11 0.11 0.10 0.09 0.10 0.11 0.11 0.13 0.20 0.32 0.46 0.65 0.79 0.82 0.80 0.79 0.78 0.79 0.80 0.83 0.87 0.87 0.86 0.86
1.10 1.15 1.09 1.06 1.09 1.05 0.98 0.94 0.86 0.73 0.59 0.56 0.51 0.36 0.24 0.18 0.15 0.13 0.13 0.13 0.13 0.14 0.14 0.14 0.15 0.16 0.18 0.22 0.28 0.35 0.46 0.62 0.80 0.88 0.88 0.87 0.89 0.92 0.97 0.99 1.03 1.03 1.02
1.15 1.18 1.22 1.18 1.12 1.15 1.13 1.09 1.01 0.89 0.78 0.73 0.65 0.58 0.41 0.27 0.18 0.16 0.15 0.14 0.14 0.17 0.18 0.18 0.20 0.21 0.22 0.25 0.27 0.29 0.32 0.44 0.66 0.88 0.96 0.95 0.93 0.95 1.04 1.14 1.22 1.27 1.25
1.28 1.20 1.14 1.15 1.12 1.13 1.15 1.16 1.17 1.16 1.05 0.95 0.85 0.85 0.68 0.45 0.32 0.23 0.19 0.18 0.19 0.20 0.21 0.24 0.25 0.27 0.27 0.27 0.25 0.27 0.29 0.32 0.47 0.75 1.00 1.10 1.10 1.13 1.22 1.32 1.41 1.54 1.56
1.37 1.30 1.24 1.18 1.14 1.12 1.09 1.16 1.21 1.22 1.24 1.14 1.03 0.95 0.86 0.69 0.63 0.45 0.31 0.28 0.30 0.29 0.28 0.27 0.28 0.29 0.30 0.31 0.32 0.34 0.38 0.41 0.50 0.73 1.07 1.31 1.42 1.53 1.66 1.77 1.87 1.99 2.00
1.50 1.38 1.30 1.29 1.25 1.21 1.18 1.19 1.24 1.25 1.26 1.24 1.17 1.09 1.04 0.89 0.77 0.71 0.53 0.41 0.40 0.38 0.37 0.35 0.34 0.34 0.34 0.34 0.35 0.43 0.55 0.61 0.70 0.90 1.18 1.49 1.73 1.91 2.07 2.19 2.29 2.39 2.46
1.44 1.34 1.27 1.23 1.22 1.19 1.17 1.14 1.17 1.20 1.20 1.18 1.14 1.09 1.08 1.02 0.88 0.86 0.78 0.59 0.54 0.49 0.50 0.51 0.48 0.46 0.44 0.42 0.45 0.56 0.61 0.68 0.80 0.98 1.26 1.57 1.76 1.90 2.07 2.26 2.40 2.47 2.57
1.27 1.23 1.20 1.16 1.18 1.16 1.16 1.16 1.14 1.11 1.16 1.16 1.14 1.07 1.01 0.93 0.90 0.96 0.97 0.81 0.67 0.56 0.54 0.54 0.53 0.55 0.58 0.60 0.64 0.75 0.74 0.79 0.86 1.01 1.24 1.50 1.60 1.60 1.63 1.75 1.95 2.14 2.29
1.16 1.15 1.21 1.22 1.23 1.22 1.16 1.15 1.12 1.09 1.11 1.10 1.09 1.09 1.05 0.96 0.92 0.93 0.96 1.03 0.98 0.80 0.68 0.63 0.61 0.66 0.71 0.76 0.85 0.94 0.85 0.94 0.93 0.97 1.09 1.26 1.34 1.29 1.24 1.32 1.49 1.66 1.84
1.11 1.08 1.13 1.15 1.14 1.13 1.08 1.08 1.06 1.00 0.97 0.97 0.96 0.98 1.00 0.94 0.93 0.94 0.98 1.11 1.30 1.27 1.03 0.84 0.82 0.85 0.87 0.87 0.94 0.86 0.76 0.91 0.95 0.94 0.97 1.02 1.04 1.03 1.03 1.06 1.13 1.24 1.35
1.00 0.99 1.02 1.03 1.01 1.00 0.99 0.98 0.94 0.87 0.85 0.81 0.81 0.84 0.87 0.88 0.92 0.97 1.05 1.14 1.27 1.42 1.32 1.00 0.87 0.87 0.90 0.89 0.93 0.78 0.71 0.84 0.81 0.80 0.81 0.83 0.84 0.84 0.86 0.90 0.97 1.05 1.13
0.80 0.80 0.86 0.89 0.85 0.82 0.82 0.83 0.81 0.80 0.78 0.75 0.74 0.76 0.77 0.81 0.89 0.95 1.04 1.13 1.23 1.34 1.37 1.12 0.92 0.84 0.84 0.79 0.74 0.64 0.59 0.58 0.57 0.67 0.66 0.66 0.69 0.71 0.71 0.75 0.82 0.89 0.97
0.74 0.72 0.74 0.77 0.75 0.71 0.70 0.71 0.71 0.72 0.75 0.76 0.76 0.79 0.79 0.83 0.92 0.98 1.05 1.11 1.14 1.17 1.19 1.08 0.87 0.77 0.71 0.63 0.59 0.54 0.49 0.46 0.43 0.55 0.56 0.56 0.59 0.61 0.59 0.60 0.67 0.75 0.82
0.73 0.74 0.70 0.70 0.69 0.67 0.67 0.67 0.67 0.67 0.70 0.74 0.78 0.82 0.83 0.87 0.91 0.92 0.93 0.94 0.94 0.92 0.92 0.89 0.76 0.66 0.61 0.56 0.54 0.49 0.44 0.42 0.38 0.42 0.45 0.45 0.52 0.58 0.56 0.57 0.62 0.68 0.69
0.67 0.70 0.67 0.67 0.68 0.70 0.71 0.71 0.73 0.76 0.78 0.81 0.84 0.86 0.86 0.87 0.85 0.83 0.81 0.78 0.77 0.78 0.78 0.80 0.76 0.66 0.59 0.54 0.54 0.50 0.45 0.40 0.38 0.35 0.40 0.40 0.47 0.54 0.56 0.52 0.48 0.47 0.49
0.63 0.64 0.63 0.64 0.68 0.74 0.80 0.81 0.81 0.85 0.90 0.92 0.91 0.88 0.84 0.85 0.83 0.78 0.73 0.70 0.70 0.74 0.79 0.83 0.80 0.69 0.57 0.49 0.45 0.41 0.42 0.41 0.39 0.36 0.40 0.40 0.40 0.40 0.40 0.44 0.47 0.47 0.49
0.64 0.65 0.69 0.72 0.76 0.84 1.06 1.08 0.99 0.95 0.96 0.94 0.90 0.83 0.78 0.79 0.75 0.74 0.73 0.71 0.74 0.81 0.90 0.94 0.83 0.66 0.47 0.40 0.40 0.46 0.53 0.60 0.52 0.35 0.40 0.40 0.38 0.39 0.37 0.38 0.48 0.53 0.55
0.71 0.75 0.80 0.87 0.93 1.01 1.12 1.04 0.98 0.84 0.82 0.79 0.73 0.67 0.63 0.60 0.62 0.56 0.62 0.69 0.72 0.80 0.82 0.75 0.65 0.49 0.42 0.42 0.55 0.67 0.64 0.62 0.49 0.35 0.44 0.50 0.45 0.42 0.39 0.42 0.50 0.48 0.50
0.84 0.92 0.98 1.01 1.01 1.01 0.97 0.84 0.78 0.67 0.61 0.58 0.53 0.48 0.46 0.45 0.45 0.50 0.54 0.62 0.58 0.56 0.55 0.51 0.49 0.47 0.48 0.51 0.63 0.77 0.75 0.68 0.53 0.43 0.46 0.55 0.46 0.44 0.40 0.42 0.48 0.48 0.52
0.92 0.92 0.89 0.84 0.77 0.72 0.67 0.56 0.48 0.42 0.41 0.39 0.36 0.36 0.37 0.35 0.44 0.56 0.60 0.61 0.51 0.44 0.46 0.51 0.57 0.59 0.61 0.59 0.59 0.70 0.80 0.86 0.73 0.51 0.44 0.48 0.43 0.41 0.41 0.41 0.44 0.51 0.50
0.71 0.62 0.52 0.44 0.38 0.34 0.36 0.35 0.34 0.29 0.30 0.30 0.30 0.32 0.40 0.42 0.52 0.63 0.58 0.57 0.50 0.42 0.44 0.46 0.45 0.44 0.43 0.44 0.50 0.56 0.79 1.09 0.94 0.69 0.45 0.55 0.58 0.62 0.75 0.48 0.43 0.45 0.45